Adamsville, PA

11:41 AM EST on February 13, 2016 (GMT -0500)
Port Meadville

Weather History for KGKJ - August, 2013

Change the Weather History Date:

Tuesday, August 6, 2013

  Actual Average Record
Temperature  
Mean Temperature 67 °F -  
Max Temperature 78 °F 79 °F 92 °F (1955)
Min Temperature 57 °F 56 °F 44 °F (1957)
Cooling Degree Days 2    
Growing Degree Days 17 (Base 50)    
Moisture  
Dew Point 53 °F    
Average Humidity 60    
Maximum Humidity 81    
Minimum Humidity 45    
Precipitation  
Precipitation 0.00 in - - ()
Sea Level Pressure  
Sea Level Pressure 30.02 in    
Wind  
Wind Speed 1 mph (South)    
Max Wind Speed 7 mph    
Max Gust Speed 28 mph    
Visibility 10 miles    
Events      
Averages and records for this station are not official NWS values.
T = Trace of Precipitation, MM = Missing Value Source: NWS Daily Summary

Daily Weather History Graph

Daily Weather History Graph

Search for Another Location

Airport or City:

Trip Planner

Search our weather history database for the weather conditions in past years. The results will help you decide how hot, cold, wet, or windy it might be!

Date:

Astronomy

Aug. 06, 2013 Rise Set
Actual Time 6:20 AM EDT 8:32 PM EDT
Civil Twilight 5:49 AM EDT 9:02 PM EDT
Nautical Twilight 5:11 AM EDT 9:40 PM EDT
Astronomical Twilight 4:30 AM EDT 10:21 PM EDT
Moon 6:10 AM EDT (8/6) 8:04 PM EDT (8/6)
Length of Visible Light 15h 13m
Length of Day
14h 11m
Waning Crescent, 0% of the Moon is Illuminated
Aug 6
Waning Crescent
Aug 6
New
Aug 14
First Quarter
Aug 20
Full
Aug 28
Last Quarter

Hourly Weather History & Observations

Time (EDT) Temp. Dew Point Humidity Pressure Visibility Wind Dir Wind Speed Gust Speed Precip Events Conditions
12:53 AM 59.0 °F 50.0 °F 72% 30.04 in 10.0 mi Calm Calm - N/A   Clear
1:53 AM 57.9 °F 51.1 °F 78% 30.04 in 10.0 mi Calm Calm - N/A   Overcast
2:53 AM 60.1 °F 50.0 °F 69% 30.04 in 10.0 mi Calm Calm - N/A   Overcast
3:53 AM 60.1 °F 50.0 °F 69% 30.04 in 10.0 mi Calm Calm - N/A   Mostly Cloudy
4:53 AM 57.9 °F 52.0 °F 81% 30.04 in 10.0 mi Calm Calm - N/A   Overcast
5:53 AM 60.1 °F 50.0 °F 69% 30.04 in 10.0 mi Calm Calm - N/A   Overcast
6:53 AM 59.0 °F 52.0 °F 78% 30.04 in 10.0 mi Calm Calm - N/A   Overcast
7:53 AM 60.1 °F 52.0 °F 75% 30.03 in 10.0 mi Calm Calm - N/A   Overcast
8:53 AM 64.0 °F 53.1 °F 67% 30.06 in 10.0 mi SSW 3.5 mph - N/A   Overcast
9:53 AM 69.1 °F 53.1 °F 57% 30.05 in 10.0 mi Variable 4.6 mph - N/A   Partly Cloudy
10:53 AM 70.0 °F 54.0 °F 57% 30.05 in 10.0 mi SSE 5.8 mph - N/A   Clear
11:53 AM 73.0 °F 54.0 °F 51% 30.05 in 10.0 mi Variable 4.6 mph - N/A   Clear
12:53 PM 73.9 °F 52.0 °F 46% 30.03 in 10.0 mi Variable 4.6 mph - N/A   Clear
1:53 PM 75.9 °F 54.0 °F 46% 30.02 in 10.0 mi Variable 3.5 mph 27.6 mph N/A   Clear
2:53 PM 77.0 °F 54.0 °F 45% 30.01 in 10.0 mi Variable 6.9 mph - N/A   Clear
3:53 PM 75.0 °F 53.1 °F 46% 30.02 in 10.0 mi Variable 3.5 mph - N/A   Mostly Cloudy
4:53 PM 77.0 °F 57.0 °F 50% 30.01 in 10.0 mi SSW 4.6 mph - 0.00 in   Mostly Cloudy
5:31 PM 75.2 °F 55.4 °F 50% 30.02 in 1.5 mi South 5.8 mph - N/A   Haze
5:39 PM 75.2 °F 53.6 °F 47% 30.02 in 10.0 mi Calm Calm - N/A   Clear
5:53 PM 75.0 °F 54.0 °F 48% 30.00 in 10.0 mi Calm Calm - N/A   Scattered Clouds
6:53 PM 73.9 °F 55.0 °F 52% 30.00 in 10.0 mi Calm Calm - N/A   Overcast
7:53 PM 73.9 °F 55.9 °F 53% 30.00 in 10.0 mi Calm Calm - N/A   Overcast
8:53 PM 71.1 °F 55.9 °F 59% 30.00 in 10.0 mi Calm Calm - N/A   Mostly Cloudy
9:53 PM 68.0 °F 55.9 °F 65% 30.00 in 10.0 mi Calm Calm - N/A   Clear
10:53 PM 69.1 °F 55.0 °F 61% 30.00 in 10.0 mi Calm Calm - N/A   Mostly Cloudy
11:53 PM 69.1 °F 55.0 °F 61% 29.99 in 10.0 mi Calm Calm - N/A   Overcast